Content
SEND FEEDBACK

Daily
Averages
Monthly
Summary
United States of America

BAYSIDE, NEW YORK


Home > North America > United States > New York
Elevation: 11 feet     Latitude: 40 46N     Longitude: 073 54W

WEATHER
 
SELECT A DAY
Number of Records: 195,861;   Date Range: 1/1/95 - 12/27/14
 
SHARE

PRINT THIS DATA

[ ← Previous Day ]
WEATHER ALMANAC - JANUARY 28, 2013
[ Next Day → ]
[ °C ]   °F
Weather ElementAverageHighLow
Temperature33.3 °F37 °F (11:51 pm)30 °F (2:51 am)
Dewpoint25.1 °F32 °F (7:29 pm)10.9 °F (2:51 am)
Humidity73.8 %89 % (7:51 pm)44 % (5:51 am)
Barometer30.25 in30.48 in (1:51 am)30.01 in (10:51 pm)
Wind Speed8.5 mph12.7 mph (11:51 am)
Wind Gust18.4 mph (11:51 am)
Weather ElementAverage
Visibility5.1 mi
Wind DirectionSSW (190.6 °)

Weather ElementTotal
Precipitation0.27 in
Heating Degree Days31.5 (Base 65)
Averaged from 33 records on January 28, 2013
WEATHER CONDITIONS BREAKOUT
WIND DIRECTION BREAKOUT
WEATHER BY HOUR - JANUARY 28, 2013
[ °C ]   °F
Local TimeTemperatureDewpointHumidityBarometerVisibilityWind DirectionWind SpeedGust SpeedPrecipitationEventsConditions
1:51 AM30.9 °F12.0 °F46 %30.48 in10.0 miWNW (300°)4.6 mphMostly Cloudy
2:51 AM30.0 °F10.9 °F45 %30.45 in10.0 miCalmMostly Cloudy
3:51 AM30.0 °F12.9 °F49 %30.45 in10.0 miCalmMostly Cloudy
4:51 AM30.0 °F14.0 °F51 %30.43 in10.0 miSouth (190°)3.5 mphOvercast
5:51 AM32.0 °F12.0 °F44 %30.41 in10.0 miVariable4.6 mphOvercast
6:51 AM32.0 °F12.9 °F45 %30.41 in10.0 miSSW (210°)6.9 mphOvercast
7:51 AM33.1 °F15.1 °F48 %30.41 in10.0 miSSW (210°)6.9 mphOvercast
8:51 AM33.1 °F18.0 °F54 %30.40 in10.0 miSSW (210°)9.2 mphOvercast
9:26 AM33.8 °F21.2 °F60 %30.39 in2.5 miSSW (210°)9.2 mph0.00 inSnowLight Snow
9:38 AM32.0 °F23.0 °F69 %30.39 in1.8 miSW (230°)11.5 mph0.00 inSnowLight Snow
9:51 AM30.9 °F25.0 °F79 %30.38 in1.5 miSSW (200°)9.2 mph0.00 inSnowLight Snow
10:04 AM30.2 °F26.6 °F86 %30.38 in0.8 miSSW (200°)10.4 mph0.01 inSnowLight Snow
10:36 AM30.2 °F26.6 °F86 %30.36 in1.5 miSSW (210°)10.4 mph0.02 inSnowLight Snow
10:51 AM32.0 °F27.0 °F82 %30.34 in1.5 miSouth (190°)8.1 mph0.02 inSnowLight Snow
11:09 AM32.0 °F28.4 °F87 %30.33 in1.5 miSouth (190°)9.2 mph0.00 inSnowLight Snow
11:42 AM33.8 °F28.4 °F81 %30.31 in2.0 miSouth (190°)11.5 mph0.00 inSnowLight Snow
11:51 AM33.1 °F27.0 °F78 %30.31 in2.0 miSSW (200°)12.7 mph18.4 mph0.00 inOvercast
12:05 PM33.8 °F26.6 °F75 %30.29 in4.0 miSouth (190°)9.2 mphHaze
12:51 PM33.1 °F28.0 °F82 %30.23 in4.0 miSouth (180°)12.7 mph0.02 inRainLight Rain
1:51 PM34.0 °F28.9 °F82 %30.18 in5.0 miSouth (190°)11.5 mph0.00 inRainLight Rain
2:51 PM34.0 °F30.0 °F85 %30.13 in3.0 miSouth (180°)12.7 mph0.02 inRainLight Rain
3:05 PM33.8 °F30.2 °F87 %30.13 in2.0 miSouth (190°)12.7 mph16.1 mph0.01 inRainLight Rain
3:51 PM34.0 °F30.0 °F85 %30.12 in2.0 miSSW (200°)9.2 mph0.07 inRainRain
4:51 PM35.1 °F30.9 °F85 %30.09 in2.0 miSSW (210°)8.1 mph0.06 inRainLight Rain
5:17 PM35.6 °F30.2 °F81 %30.08 in3.0 miSW (220°)11.5 mph0.00 inOvercast
5:51 PM35.1 °F30.9 °F85 %30.07 in3.0 miSW (220°)8.1 mph0.00 inOvercast
6:51 PM35.1 °F30.9 °F85 %30.07 in5.0 miSW (220°)6.9 mph0.01 inRainLight Rain
7:29 PM35.6 °F32.0 °F87 %30.06 in5.0 miSW (220°)9.2 mph0.01 inRainLight Rain
7:51 PM35.1 °F32.0 °F89 %30.05 in7.0 miSW (220°)6.9 mph0.02 inOvercast
8:51 PM36.0 °F30.9 °F82 %30.04 in8.0 miSW (230°)8.1 mph0.00 inOvercast
9:51 PM36.0 °F32.0 °F86 %30.02 in7.0 miWSW (240°)11.5 mphOvercast
10:51 PM36.0 °F32.0 °F86 %30.01 in7.0 miSW (220°)5.8 mphOvercast
11:51 PM37.0 °F32.0 °F82 %30.01 in6.0 miSW (220°)6.9 mphHaze
Hourly data recorded from KLGA, located miles away from Bayside, New York







STORIES FROM OUR PARTNERS